EW1544 Yarmouth MA US current weather conditions

sailwx.info

Wind from 085 at 2 knots gusting 7

Air temperature 10.0° C
Dewpoint 2.1° C

Last reported at 2020-Oct-25 20:04 UTC.
Time now 2020-Oct-26 03:31 UTC

Location: N 41°40' W 070°15'.
View on Google Maps.

See reports from other nearby stations

  
Tides and Currents Weather Stations Pressure Air Temp Water Temp Dewpoint Dewpoint Depression Visibility Wind Speed Wind Dir Waves Ship Positions
date/time (UTC)wind fromknots sea level pressurealtimeterstation pressurevisibilityair tempwater tempwave heightnotes
2020-Oct-25 20:04 085 2 gusting 7 10.0
2020-Oct-25 18:04
2020-Oct-25 17:04 033 4 11.7
2020-Oct-25 16:04
2020-Oct-25 15:04 071 5 11.7
2020-Oct-25 14:04
2020-Oct-25 13:04
2020-Oct-25 12:04
2020-Oct-25 11:04 027 3 gusting 9 10.6
2020-Oct-25 10:04
2020-Oct-25 09:04 024 6 10.6
2020-Oct-25 08:04 027 6 10.6
2020-Oct-25 07:54 022 5 10.6
2020-Oct-25 07:44 004 5 10.6
2020-Oct-25 07:34 022 6 10.6
2020-Oct-25 07:24 016 6 10.6
2020-Oct-25 07:14 015 6 10.6
2020-Oct-25 07:04 008 5 10.6
2020-Oct-25 06:54 002 4 10.6
2020-Oct-25 06:44 357 6 10.6
2020-Oct-25 06:34 004 4 10.6
2020-Oct-25 06:24 002 5 10.6
2020-Oct-25 06:14 356 6 10.6
2020-Oct-25 06:04 016 6 10.6
2020-Oct-25 05:54 351 6 10.6
2020-Oct-25 05:44 350 6 10.6
2020-Oct-25 05:34 358 5 10.6
2020-Oct-25 05:24 338 9 10.6
2020-Oct-25 05:14 334 6 gusting 18 10.6
2020-Oct-25 05:04 009 8 gusting 18 11.1
2020-Oct-25 04:54 010 6 gusting 19 11.1
2020-Oct-25 04:44 342 6 gusting 18 11.1
2020-Oct-25 04:34 005 6 gusting 19 11.1
2020-Oct-25 04:24 001 8 gusting 20 11.7
2020-Oct-25 04:14 008 9 gusting 18 11.7
2020-Oct-25 04:04 344 6 gusting 18 11.7
2020-Oct-25 03:54 354 7 gusting 24 12.2
2020-Oct-25 03:44 350 9 gusting 17 12.8
2020-Oct-25 03:34 004 8 gusting 23 12.8
2020-Oct-25 03:24 354 6 gusting 21 12.8
2020-Oct-25 03:14 350 10 gusting 19 13.3
2020-Oct-25 03:04 342 7 gusting 20 13.3
2020-Oct-25 02:54 340 6 gusting 16 13.9
2020-Oct-25 02:44 347 8 gusting 19 13.9
2020-Oct-25 02:34 349 6 gusting 21 13.9
2020-Oct-25 02:24 004 6 gusting 17 14.4
2020-Oct-25 02:14 350 8 gusting 18 14.4
2020-Oct-25 02:04 353 7 gusting 17 14.4
2020-Oct-25 01:54 354 9 gusting 19 14.4
2020-Oct-25 01:44 013 7 gusting 15 15.0
2020-Oct-25 01:34 356 8 gusting 18 15.0
2020-Oct-25 01:24 326 6 gusting 13 15.6
2020-Oct-25 01:14 323 5 gusting 15 15.6
2020-Oct-25 01:04 348 6 gusting 14 16.1
2020-Oct-25 00:54 346 3 gusting 13 16.1
2020-Oct-25 00:44 001 3 gusting 14 16.7
2020-Oct-25 00:34 001 5 gusting 12 16.7
2020-Oct-25 00:24 267 0 gusting 6 16.7
2020-Oct-25 00:14 266 2 gusting 6 17.2
2020-Oct-25 00:04 240 1 gusting 3 17.2
2020-Oct-24 23:54 265 1 gusting 3 17.2
2020-Oct-24 23:44 260 17.2
2020-Oct-24 23:34 258 1 gusting 5 17.2
2020-Oct-24 23:24 262 3 gusting 6 17.2
2020-Oct-24 23:14 226 0 gusting 3 17.2
2020-Oct-24 23:04 224 1 gusting 6 17.2
2020-Oct-24 22:54 233 1 gusting 5 17.2
2020-Oct-24 22:44 271 3 gusting 12 17.8
2020-Oct-24 22:34 258 5 gusting 10 17.8
2020-Oct-24 22:24 259 3 gusting 10 17.8
2020-Oct-24 22:14 258 4 gusting 7 17.8
2020-Oct-24 22:04 265 2 gusting 6 17.8
2020-Oct-24 21:54 261 2 gusting 6 18.3
2020-Oct-24 21:44 265 2 gusting 8 18.3
2020-Oct-24 21:34 257 2 gusting 7 18.3
2020-Oct-24 21:24 252 3 gusting 7 18.3
2020-Oct-24 21:14 232 0 gusting 6 18.3
2020-Oct-24 21:04 234 1 gusting 3 18.3
2020-Oct-24 20:54 211 2 gusting 5 18.3
2020-Oct-24 20:44 203 0 gusting 6 18.3
2020-Oct-24 20:34 200 1 gusting 7 18.3
2020-Oct-24 20:24 247 3 gusting 8 18.3
2020-Oct-24 20:14 259 3 gusting 6 18.3
2020-Oct-24 20:04 256 1 gusting 6 18.3
2020-Oct-24 19:54 224 2 gusting 6 18.9
2020-Oct-24 19:44 230 3 gusting 8 18.3
2020-Oct-24 19:34 230 3 gusting 7 18.3
2020-Oct-24 19:24 201 3 gusting 9 18.3
2020-Oct-24 19:14 216 2 gusting 6 18.3
2020-Oct-24 19:04 232 2 gusting 6 18.3
2020-Oct-24 18:54 244 1 gusting 10 18.3
2020-Oct-24 18:44 262 4 gusting 8 17.8
2020-Oct-24 18:34 254 3 gusting 8 17.8
2020-Oct-24 18:24 245 2 gusting 6 17.8
2020-Oct-24 18:14 226 2 gusting 9 17.8
2020-Oct-24 18:04 248 3 gusting 11 17.8
2020-Oct-24 17:54 235 5 gusting 8 18.3
2020-Oct-24 17:44 202 2 gusting 7 18.3
2020-Oct-24 17:34 214 2 gusting 7 18.3
2020-Oct-24 17:24 200 0 gusting 9 18.3
2020-Oct-24 17:14 189 2 gusting 9 18.3
2020-Oct-24 17:04 185 1 gusting 9 18.3
2020-Oct-24 16:54 189 4 gusting 11 18.9
2020-Oct-24 16:44 188 5 gusting 9 19.4
2020-Oct-24 16:34 194 2 gusting 10 19.4
2020-Oct-24 16:24 190 1 gusting 9 19.4
2020-Oct-24 16:14 188 3 gusting 8 18.9
2020-Oct-24 16:04 193 6 gusting 9 18.9
2020-Oct-24 15:54 196 3 gusting 9 18.9
2020-Oct-24 15:44 186 4 gusting 9 18.3
2020-Oct-24 15:34 182 4 gusting 7 18.3
2020-Oct-24 15:24 194 4 gusting 9 18.3
2020-Oct-24 15:14 208 5 gusting 8 18.9
2020-Oct-24 15:04 222 2 gusting 7 18.9
2020-Oct-24 14:54 246 3 gusting 7 18.9
2020-Oct-24 14:44 182 2 gusting 6 18.3
2020-Oct-24 14:34 182 1 gusting 4 18.3
2020-Oct-24 14:24 241 17.8
2020-Oct-24 14:14 193 2 gusting 5 17.2
2020-Oct-24 14:04 181 1 gusting 4 16.7
2020-Oct-24 13:54 224 1 gusting 3 16.7
2020-Oct-24 13:44 195 1 gusting 5 15.6
2020-Oct-24 13:34 196 1 gusting 4 15.6
2020-Oct-24 13:24 174 15.0
2020-Oct-24 13:14 176 0 gusting 1 15.0
2020-Oct-24 13:04 202 0 gusting 2 15.0
2020-Oct-24 12:54 173 15.0
2020-Oct-24 12:44 217 0 gusting 3 14.4
2020-Oct-24 12:34 266 2 gusting 6 14.4
2020-Oct-24 12:24 253 1 gusting 3 14.4
2020-Oct-24 12:14 226 0 gusting 2 13.9
2020-Oct-24 12:04 258 1 gusting 3 13.9
2020-Oct-24 11:54 271 0 gusting 1 13.9
2020-Oct-24 11:44 256 13.9
2020-Oct-24 11:34 091 13.9
2020-Oct-24 11:24 103 13.9
2020-Oct-24 11:14 105 14.4
2020-Oct-24 11:04 104 14.4
2020-Oct-24 10:54 104 14.4
2020-Oct-24 10:44 104 14.4
2020-Oct-24 10:34 105 14.4
2020-Oct-24 10:24 140 14.4
2020-Oct-24 10:14 137 14.4
2020-Oct-24 10:04 134 14.4
2020-Oct-24 09:54 133 14.4
2020-Oct-24 09:44 133 14.4
2020-Oct-24 09:34 135 14.4
2020-Oct-24 09:24 132 14.4
2020-Oct-24 09:14 134 14.4
2020-Oct-24 09:04 132 14.4
2020-Oct-24 08:54 132 14.4
2020-Oct-24 08:44 132 14.4
2020-Oct-24 08:34 134 14.4
2020-Oct-24 08:24 129 14.4
2020-Oct-24 08:14 128 14.4
2020-Oct-24 08:04 127 14.4
2020-Oct-24 07:54 126 14.4
2020-Oct-24 07:44 126 14.4
2020-Oct-24 07:34 126 15.0
2020-Oct-24 07:24 130 15.0
2020-Oct-24 07:14 130 15.0
2020-Oct-24 07:04 130 15.0
2020-Oct-24 06:54 130 15.0
2020-Oct-24 06:44 131 15.0
2020-Oct-24 06:34 146 15.0
2020-Oct-24 06:24 150 15.0
2020-Oct-24 06:14 149 15.0
2020-Oct-24 06:04 151 15.0
2020-Oct-24 05:54 151 15.0
2020-Oct-24 05:44 151 15.0
2020-Oct-24 05:34 148 15.0
2020-Oct-24 05:24 147 15.0
2020-Oct-24 05:14 146 15.0
2020-Oct-24 05:04 145 15.0
2020-Oct-24 04:54 145 15.0
2020-Oct-24 04:44 142 15.0
2020-Oct-24 04:34 141 15.0
2020-Oct-24 04:24 140 15.0
2020-Oct-24 04:14 165 0 gusting 1 15.0
2020-Oct-24 04:04 166 0 gusting 3 15.0
2020-Oct-24 03:54 142 0 gusting 4 15.0
2020-Oct-24 03:44 126 15.0
2020-Oct-24 03:34 142 1 gusting 5 15.0
2020-Oct-24 03:24 126 0 gusting 2 15.0
2020-Oct-24 03:14 115 0 gusting 4 15.0
2020-Oct-24 03:04 129 15.0